Saint Johnsbury, VT

10:57 AM EST on February 20, 2017 (GMT -0500)
St. Johnsbury

Weather History for K1V4 - June, 2014

Change the Weather History Date:

Monday, June 2, 2014

  Actual Average Record
Temperature  
Mean Temperature 65 °F 62 °F  
Max Temperature 84 °F 74 °F 93 °F (1934)
Min Temperature 46 °F 50 °F 31 °F (1945)
Degree Days  
Heating Degree Days 1 5  
Month to date heating degree days 10  
Since 1 June heating degree days 10  
Since 1 July heating degree days 7714  
Cooling Degree Days 0 1  
Month to date cooling degree days 0 2  
Year to date cooling degree days 4 20  
Since 1 June cooling degree days 0 2  
Growing Degree Days 14 (Base 50)    
Moisture  
Dew Point 48 °F    
Average Humidity 61    
Maximum Humidity 93    
Minimum Humidity 28    
Precipitation  
Precipitation 0.00 in 0.13 in 2.23 in (1952)
Month to date precipitation 0.00 0.25  
Year to date precipitation 15.70 13.66  
Sea Level Pressure  
Sea Level Pressure 30.04 in    
Wind  
Wind Speed - (North)    
Max Wind Speed -    
Max Gust Speed -    
T = Trace of Precipitation, MM = Missing Value Source: NWS Daily Summary

Daily Weather History Graph

Daily Weather History Graph

Search for Another Location

Airport or City:

Trip Planner

Search our weather history database for the weather conditions in past years. The results will help you decide how hot, cold, wet, or windy it might be!

Date:

Astronomy

Jun. 02, 2014 Rise Set
Actual Time 5:06 AM EDT 8:26 PM EDT
Civil Twilight 4:30 AM EDT 9:02 PM EDT
Nautical Twilight 3:43 AM EDT 9:49 PM EDT
Astronomical Twilight 2:45 AM EDT 10:47 PM EDT
Moon 9:37 AM EDT (6/2) 11:46 PM EDT (6/2)
Length of Visible Light 16h 31m
Length of Day
15h 20m
Waxing Crescent, 21% of the Moon is Illuminated
Jun 2
Waxing Crescent
Jun 5
First Quarter
Jun 13
Full
Jun 19
Last Quarter
Jun 27
New

Hourly Weather History & Observations

Time (EDT) Temp. Dew Point Humidity Pressure Visibility Wind Dir Wind Speed Gust Speed Precip Events Conditions
12:54 AM 51.1 °F 48.0 °F 89% 30.15 in - North - - N/A   Unknown
1:54 AM 50.0 °F 46.9 °F 89% 30.15 in - North - - N/A   Unknown
2:54 AM 48.9 °F 46.0 °F 90% 30.15 in - North - - N/A   Unknown
3:54 AM 48.0 °F 45.0 °F 89% 30.15 in - North - - N/A   Unknown
4:54 AM 46.9 °F 44.1 °F 90% 30.14 in - North - - N/A   Unknown
5:54 AM 46.9 °F 44.1 °F 90% 30.15 in - North - - N/A   Unknown
6:54 AM 48.0 °F 45.0 °F 89% 30.15 in - North - - N/A   Unknown
7:54 AM 53.1 °F 46.0 °F 77% 30.13 in - North - - N/A   Unknown
8:54 AM 60.1 °F 46.0 °F 60% 30.13 in - North - - N/A   Unknown
9:54 AM 66.0 °F 48.0 °F 52% 30.10 in - North - - N/A   Unknown
10:54 AM 72.0 °F 51.1 °F 48% 30.08 in - North - - N/A   Unknown
11:54 AM 75.9 °F 51.1 °F 42% 30.05 in - North - - N/A   Unknown
12:54 PM 79.0 °F 45.0 °F 30% 30.01 in - North - - N/A   Unknown
2:54 PM 82.9 °F 48.0 °F 29% 29.97 in - North - - N/A   Unknown
3:54 PM 82.9 °F 46.9 °F 28% 29.95 in - North - - N/A   Unknown
4:54 PM 82.9 °F 46.9 °F 28% 29.94 in - North - - N/A   Unknown
5:54 PM 82.0 °F 46.9 °F 29% 29.93 in - North - - N/A   Unknown
6:54 PM 80.1 °F 48.9 °F 34% 29.92 in - North - - N/A   Unknown
7:54 PM 79.0 °F 50.0 °F 36% 29.92 in - North - - N/A   Unknown
8:54 PM 71.1 °F 55.0 °F 57% 29.93 in - North - - N/A   Unknown
9:54 PM 66.0 °F 55.9 °F 70% 29.94 in - North - - N/A   Unknown
10:54 PM 63.0 °F 55.0 °F 75% 29.95 in - North - - N/A   Unknown
11:54 PM 61.0 °F 55.0 °F 81% 29.95 in - North - - N/A   Unknown